Year,Month,Day,Hour,Minute,Value (Times are PST for temperature in C)
2021,03,27,00,00,6.80
2021,03,27,00,01,6.80
2021,03,27,00,02,6.80
2021,03,27,00,03,6.80
2021,03,27,00,04,6.80
2021,03,27,00,05,6.80
2021,03,27,00,06,6.80
2021,03,27,00,07,6.80
2021,03,27,00,08,6.80
2021,03,27,00,09,6.80
2021,03,27,00,10,6.80
2021,03,27,00,11,6.80
2021,03,27,00,12,6.80
2021,03,27,00,13,6.80
2021,03,27,00,14,6.80
2021,03,27,00,15,6.80
2021,03,27,00,16,6.80
2021,03,27,00,17,6.80
2021,03,27,00,18,6.80
2021,03,27,00,19,6.80
2021,03,27,00,20,6.80
2021,03,27,00,21,6.80
2021,03,27,00,22,6.80
2021,03,27,00,23,6.80
2021,03,27,00,24,6.80
2021,03,27,00,25,6.80
2021,03,27,00,26,6.80
2021,03,27,00,27,6.80
2021,03,27,00,28,6.80
2021,03,27,00,29,6.80
2021,03,27,00,30,6.80
2021,03,27,00,31,6.80
2021,03,27,00,32,6.80
2021,03,27,00,33,6.80
2021,03,27,00,34,6.80
2021,03,27,00,35,6.80
2021,03,27,00,36,6.80
2021,03,27,00,37,6.80
2021,03,27,00,38,6.80
2021,03,27,00,39,6.80
2021,03,27,00,40,6.80
2021,03,27,00,41,6.80
2021,03,27,00,42,6.80
2021,03,27,00,43,6.80
2021,03,27,00,44,6.80
2021,03,27,00,45,6.80
2021,03,27,00,46,6.80
2021,03,27,00,47,6.80
2021,03,27,00,48,6.80
2021,03,27,00,49,6.80
2021,03,27,00,50,6.80
2021,03,27,00,51,6.70
2021,03,27,00,52,6.70
2021,03,27,00,53,6.70
2021,03,27,00,54,6.70
2021,03,27,00,55,6.70
2021,03,27,00,56,6.70
2021,03,27,00,57,6.60
2021,03,27,00,58,6.60
2021,03,27,00,59,6.60
2021,03,27,01,00,6.60
2021,03,27,01,01,6.60
2021,03,27,01,02,6.50
2021,03,27,01,03,6.50
2021,03,27,01,04,6.50
2021,03,27,01,05,6.50
2021,03,27,01,06,6.50
2021,03,27,01,07,6.40
2021,03,27,01,08,6.40
2021,03,27,01,09,6.40
2021,03,27,01,10,6.40
2021,03,27,01,11,6.40
2021,03,27,01,12,6.40
2021,03,27,01,13,6.40
2021,03,27,01,14,6.30
2021,03,27,01,15,6.30
2021,03,27,01,16,6.30
2021,03,27,01,17,6.30
2021,03,27,01,18,6.30
2021,03,27,01,19,6.20
2021,03,27,01,20,6.20
2021,03,27,01,21,6.20
2021,03,27,01,22,6.20
2021,03,27,01,23,6.20
2021,03,27,01,24,6.20
2021,03,27,01,25,6.10
2021,03,27,01,26,6.10
2021,03,27,01,27,6.10
2021,03,27,01,28,6.10
2021,03,27,01,29,6.10
2021,03,27,01,30,6.10
2021,03,27,01,31,6.10
2021,03,27,01,32,6.10
2021,03,27,01,33,6.10
2021,03,27,01,34,6.10
2021,03,27,01,35,6.10
2021,03,27,01,36,6.10
2021,03,27,01,37,6.00
2021,03,27,01,38,6.00
2021,03,27,01,39,6.00
2021,03,27,01,40,6.00
2021,03,27,01,41,6.00
2021,03,27,01,42,6.00
2021,03,27,01,43,6.00
2021,03,27,01,44,6.00
2021,03,27,01,45,6.00
2021,03,27,01,46,6.00
2021,03,27,01,47,6.00
2021,03,27,01,48,5.90
2021,03,27,01,49,5.90
2021,03,27,01,50,5.90
2021,03,27,01,51,5.90
2021,03,27,01,52,5.90
2021,03,27,01,53,5.90
2021,03,27,01,54,5.90
2021,03,27,01,55,5.90
2021,03,27,01,56,5.90
2021,03,27,01,57,5.90
2021,03,27,01,58,5.90
2021,03,27,01,59,5.90
2021,03,27,02,00,5.90
2021,03,27,02,01,5.90
2021,03,27,02,02,5.90
2021,03,27,02,03,5.90
2021,03,27,02,04,5.90
2021,03,27,02,05,5.90
2021,03,27,02,06,5.90
2021,03,27,02,07,5.90
2021,03,27,02,08,5.90
2021,03,27,02,09,5.90
2021,03,27,02,10,5.90
2021,03,27,02,11,5.90
2021,03,27,02,12,5.90
2021,03,27,02,13,5.90
2021,03,27,02,14,5.90
2021,03,27,02,15,5.90
2021,03,27,02,16,5.80
2021,03,27,02,17,5.80
2021,03,27,02,18,5.80
2021,03,27,02,19,5.80
2021,03,27,02,20,5.80
2021,03,27,02,21,5.80
2021,03,27,02,22,5.80
2021,03,27,02,23,5.80
2021,03,27,02,24,5.80
2021,03,27,02,25,5.80
2021,03,27,02,26,5.70
2021,03,27,02,27,5.70
2021,03,27,02,28,5.80
2021,03,27,02,29,5.70
2021,03,27,02,30,5.70
2021,03,27,02,31,5.70
2021,03,27,02,32,5.70
2021,03,27,02,33,5.70
2021,03,27,02,34,5.70
2021,03,27,02,35,5.70
2021,03,27,02,36,5.70
2021,03,27,02,37,5.70
2021,03,27,02,38,5.70
2021,03,27,02,39,5.70
2021,03,27,02,40,5.70
2021,03,27,02,41,5.70
2021,03,27,02,42,5.70
2021,03,27,02,43,5.70
2021,03,27,02,44,5.70
2021,03,27,02,45,5.70
2021,03,27,02,46,5.70
2021,03,27,02,47,5.70
2021,03,27,02,48,5.70
2021,03,27,02,49,5.70
2021,03,27,02,50,5.70
2021,03,27,02,51,5.70
2021,03,27,02,52,5.70
2021,03,27,02,53,5.60
2021,03,27,02,54,5.60
2021,03,27,02,55,5.60
2021,03,27,02,56,5.60
2021,03,27,02,57,5.60
2021,03,27,02,58,5.60
2021,03,27,02,59,5.60
2021,03,27,03,00,5.60
2021,03,27,03,01,5.60
2021,03,27,03,02,5.60
2021,03,27,03,03,5.60
2021,03,27,03,04,5.60
2021,03,27,03,05,5.60
2021,03,27,03,06,5.50
2021,03,27,03,07,5.50
2021,03,27,03,08,5.50
2021,03,27,03,09,5.50
2021,03,27,03,10,5.50
2021,03,27,03,11,5.50
2021,03,27,03,12,5.50
2021,03,27,03,13,5.50
2021,03,27,03,14,5.50
2021,03,27,03,15,5.50
2021,03,27,03,16,5.50
2021,03,27,03,17,5.50
2021,03,27,03,18,5.50
2021,03,27,03,19,5.50
2021,03,27,03,20,5.50
2021,03,27,03,21,5.50
2021,03,27,03,22,5.40
2021,03,27,03,23,5.40
2021,03,27,03,24,5.40
2021,03,27,03,25,5.40
2021,03,27,03,26,5.40
2021,03,27,03,27,5.40
2021,03,27,03,28,5.40
2021,03,27,03,29,5.40
2021,03,27,03,30,5.40
2021,03,27,03,31,5.40
2021,03,27,03,32,5.40
2021,03,27,03,33,5.40
2021,03,27,03,34,5.40
2021,03,27,03,35,5.40
2021,03,27,03,36,5.30
2021,03,27,03,37,5.30
2021,03,27,03,38,5.40
2021,03,27,03,39,5.30
2021,03,27,03,40,5.30
2021,03,27,03,41,5.30
2021,03,27,03,42,5.30
2021,03,27,03,43,5.30
2021,03,27,03,44,5.30
2021,03,27,03,45,5.30
2021,03,27,03,46,5.30
2021,03,27,03,47,5.30
2021,03,27,03,48,5.30
2021,03,27,03,49,5.30
2021,03,27,03,50,5.20
2021,03,27,03,51,5.20
2021,03,27,03,52,5.20
2021,03,27,03,53,5.20
2021,03,27,03,54,5.20
2021,03,27,03,55,5.20
2021,03,27,03,56,5.10
2021,03,27,03,57,5.10
2021,03,27,03,58,5.10
2021,03,27,03,59,5.10
2021,03,27,04,00,5.10
2021,03,27,04,01,5.10
2021,03,27,04,02,5.10
2021,03,27,04,03,5.10
2021,03,27,04,04,5.10
2021,03,27,04,05,5.10
2021,03,27,04,06,5.10
2021,03,27,04,07,5.10
2021,03,27,04,08,5.10
2021,03,27,04,09,5.10
2021,03,27,04,10,5.10
2021,03,27,04,11,5.10
2021,03,27,07,18,5.10
2021,03,27,07,19,5.10
2021,03,27,07,20,5.10
2021,03,27,07,21,5.10
2021,03,27,07,22,5.10
2021,03,27,07,23,5.10
2021,03,27,07,24,5.10
2021,03,27,07,25,5.10
2021,03,27,07,26,5.10
2021,03,27,07,27,5.10
2021,03,27,07,28,5.10
2021,03,27,07,29,5.10
2021,03,27,07,30,5.10
